Location: ??? ?????
(30.6482°N, 60.5850°E)
Time: 05:48:42
(UTC+00:00)

Okean 2 Rocket - Pass Details

Date: 09 April 2020
Orbit: 617 x 641 km, 82.5° (Epoch: 27 May)

Event Time Altitude Azimuth Distance (km) Brightness Sun altitude
Rises 23:41:11 0° 349° (NNW) 2,945 6.7 -24.2°
Reaches altitude 10° 23:43:27 10° 345° (NNW) 2,034 5.8 -23.8°
Enters shadow 23:46:48 45° 317° (NW) 879 3.6 -23.2°
